Content
SEND FEEDBACK

Daily
Averages
Monthly
Summary
United States of America

CHESTERFIELD, MISSOURI


Home > North America > United States > Missouri
Elevation: 559 feet     Latitude: 38 41N     Longitude: 090 31W

WEATHER
 
SELECT A DAY
Number of Records: 206,532;   Date Range: 1/1/95 - 10/21/14
 
SHARE

PRINT THIS DATA

[ ← Previous Day ]
WEATHER ALMANAC - MAY 17, 2013
[ Next Day → ]
[ °C ]   °F
Weather ElementAverageHighLow
Temperature71.3 °F75.9 °F (3:51 pm)66 °F (2:51 am)
Dewpoint62 °F66 °F (1:51 pm)57 °F (4:51 am)
Humidity72.5 %87 % (1:51 pm)64 % (11:51 am)
Barometer29.92 in29.95 in (12:51 pm)29.90 in (2:51 am)
Wind Speed6.8 mph10.4 mph (10:51 am)
Weather ElementAverage
Visibility9.5 mi
Wind DirectionSE (136.1 °)

Weather ElementTotal
Precipitation0.27 in
Cooling Degree Days6 (Base 65)
Growing Degree Days21 (Base 50)
Averaged from 23 records on May 17, 2013
WEATHER CONDITIONS BREAKOUT
WIND DIRECTION BREAKOUT
WEATHER BY HOUR - MAY 17, 2013
[ °C ]   °F
Local TimeTemperatureDewpointHumidityBarometerVisibilityWind DirectionWind SpeedGust SpeedPrecipitationEventsConditions
1:51 AM66.9 °F57.9 °F73 %29.92 in10.0 miESE (120°)5.8 mphMostly Cloudy
2:51 AM66.0 °F57.9 °F75 %29.90 in10.0 miESE (120°)6.9 mphMostly Cloudy
3:51 AM68.0 °F57.9 °F70 %29.90 in10.0 miSSE (150°)5.8 mphOvercast
4:51 AM69.1 °F57.0 °F65 %29.90 in10.0 miSE (130°)5.8 mphMostly Cloudy
5:51 AM69.1 °F57.0 °F65 %29.91 in10.0 miSSE (160°)6.9 mphOvercast
6:51 AM66.9 °F59.0 °F76 %29.93 in10.0 miEast (100°)4.6 mphMostly Cloudy
7:51 AM68.0 °F59.0 °F73 %29.94 in9.0 miESE (110°)5.8 mphOvercast
8:51 AM72.0 °F60.1 °F66 %29.94 in10.0 miSE (140°)5.8 mphMostly Cloudy
9:51 AM73.0 °F62.1 °F68 %29.94 in10.0 miSSE (150°)9.2 mphMostly Cloudy
10:51 AM75.0 °F63.0 °F66 %29.94 in10.0 miESE (120°)10.4 mphMostly Cloudy
11:51 AM75.0 °F62.1 °F64 %29.94 in10.0 miESE (120°)9.2 mphOvercast
12:51 PM71.1 °F64.9 °F81 %29.95 in8.0 miSouth (190°)4.6 mph0.01 inRainLight Rain
1:51 PM70.0 °F66.0 °F87 %29.94 in9.0 miNorth (350°)3.5 mph0.25 inRainLight Rain
2:51 PM73.9 °F66.0 °F76 %29.93 in9.0 miNNE (30°)3.5 mph0.01 inMostly Cloudy
3:51 PM75.9 °F64.0 °F67 %29.91 in10.0 miEast (100°)9.2 mphMostly Cloudy
4:51 PM75.0 °F64.9 °F71 %29.90 in8.0 miESE (110°)9.2 mph0.00 inRainLight Rain
5:51 PM75.0 °F64.9 °F71 %29.90 in9.0 miESE (120°)10.4 mph0.00 inMostly Cloudy
6:51 PM73.9 °F64.0 °F71 %29.90 in9.0 miESE (120°)8.1 mphMostly Cloudy
7:51 PM73.0 °F64.0 °F73 %29.91 in8.0 miESE (120°)6.9 mphMostly Cloudy
8:51 PM72.0 °F64.9 °F78 %29.92 in9.0 miESE (120°)5.8 mphMostly Cloudy
9:51 PM72.0 °F63.0 °F73 %29.94 in10.0 miSE (140°)6.9 mphMostly Cloudy
10:51 PM70.0 °F63.0 °F78 %29.95 in10.0 miSSE (150°)5.8 mphScattered Clouds
11:51 PM69.1 °F63.0 °F81 %29.95 in10.0 miSSE (160°)6.9 mphPartly Cloudy
Hourly data recorded from KSTL, located miles away from Chesterfield, Missouri







STORIES FROM OUR PARTNERS